Location: Budapest
(47.4979°N, 19.0402°E)
Time: 05:03:08
(UTC+02:00)

N. Korean satellite - Pass Details

Date: 16 October 2017
Orbit: 459 x 517 km, 97.2° (Epoch: 20 October)

Event Time Altitude Azimuth Distance (km) Brightness Sun altitude
Rises 19:54:39 0° 214° (SW) 2,533 10.5 -21.1°
Reaches altitude 10° 19:57:56 10° 248° (WSW) 1,647 10.0 -21.6°
Maximum altitude 19:59:17 12° 270° (W) 1,535 10.2 -21.9°
Drops below altitude 10° 20:00:38 10° 293° (WNW) 1,642 10.3 -22.1°
Sets 20:03:53 0° 327° (NNW) 2,514 10.9 -22.6°
